[[{"header":{"parameterUnit":"m.s-1","parameterCategory":1,"la1":30.2991,"la2":30.254,"lo1":-89.0895,"lo2":-89.0444,"dy":0.0017,"dx":0.0017,"nx":28,"ny":28,"refTime":"2024-07-01T09:00:00:Z","depth":0,"parameterNumber":2,"parameterNumberName":"U-component_of_WINDS"},"data":[0,0,0,0,0,0,0,0,0,0,0,0,0,0,0,0,0,0,0,0,0,0,0,0,0,0,0,0,0,0,0,0,0,0,0,0,0,0,0,0,0,0,0,0,0,0,0,0,0,0,0,0,0,0,0,0,0,0,-0.3292,-0.3291,0,-0.3227,-0.3226,-0.3225,-0.3218,-0.3219,-0.3219,-0.322,-0.3149,-0.3147,-0.3144,0,0,0,0,0,0,0,0,0,0,0,0,0,-0.3404,-0.3402,-0.3292,-0.3291,-0.329,-0.3227,-0.3226,-0.3225,-0.3218,-0.3219,-0.322,-0.322,-0.315,-0.3147,-0.3144,0,0,0,0,0,0,0,0,0,0,0,0,0,-0.3349,-0.3402,-0.3292,-0.3279,-0.3277,-0.3227,-0.3226,-0.3225,-0.3218,-0.3219,-0.322,-0.3221,-0.3151,-0.3147,-0.3144,-0.3101,0,0,-0.3132,-0.3131,0,0,0,0,0,0,0,0,-0.3352,-0.3345,-0.3282,-0.328,-0.3278,-0.3232,-0.324,-0.3183,-0.3217,-0.324,-0.322,-0.3221,-0.3176,-0.317,-0.3155,-0.3097,-0.3094,-0.3132,-0.313,-0.3128,-0.3127,0,0,0,0,0,0,0,-0.3356,-0.3348,-0.3266,-0.3281,-0.3278,-0.3275,-0.3268,-0.3229,-0.3203,-0.3238,-0.3238,-0.323,-0.3175,-0.3159,-0.3154,-0.3093,-0.3132,-0.3129,-0.3126,-0.3125,-0.2995,-0.2994,0,0,0,0,0,0,-0.3363,-0.3351,-0.3268,-0.3264,-0.3318,-0.3272,-0.3264,-0.3245,-0.3203,-0.3198,-0.3229,-0.323,-0.3165,-0.3158,-0.3151,-0.3097,-0.3128,-0.3125,-0.3122,-0.2996,-0.2995,-0.2994,0,0,0,0,0,0,-0.3365,-0.3356,-0.3271,-0.3307,-0.3296,-0.3269,-0.3248,-0.3244,-0.3228,-0.3197,-0.3192,-0.3219,-0.3165,-0.3156,-0.3113,-0.3094,-0.3123,-0.3119,-0.2998,-0.2996,-0.2994,-0.2988,0,0,0,0,0,0,-0.3369,-0.3357,-0.3341,-0.3307,-0.3294,-0.3235,-0.3246,-0.3242,-0.3222,-0.3222,-0.3185,-0.318,-0.3166,-0.3119,-0.311,-0.3089,-0.3116,-0.2999,-0.2997,-0.2995,-0.299,-0.2987,-0.2984,0,0,0,0,0,-0.3373,-0.3341,-0.334,-0.333,-0.3274,-0.3234,-0.3226,-0.3212,-0.3221,-0.3204,-0.3184,-0.3181,-0.3098,-0.3115,-0.3104,-0.3082,-0.3001,-0.2998,-0.2995,-0.2992,-0.2987,-0.2984,0,0,0,0,0,0,-0.3372,-0.3336,-0.3335,-0.3292,-0.3266,-0.3233,-0.3211,-0.3208,-0.3178,-0.3179,-0.3161,-0.3153,-0.311,-0.3092,-0.3111,-0.3038,-0.305,-0.3045,-0.3051,-0.3047,-0.3043,-0.3048,-0.3113,0,0,0,0,0,-0.3367,-0.3339,-0.3309,-0.3273,-0.3261,-0.3238,-0.322,-0.3211,-0.3183,-0.3172,-0.3149,-0.312,-0.3088,-0.3067,-0.3035,-0.2988,-0.2979,-0.2968,-0.2965,-0.2963,-0.2958,-0.293,-0.2924,-0.2985,-0.2985,-0.2985,0,0,-0.3356,-0.3333,-0.3316,-0.3273,-0.3252,-0.3221,-0.3229,-0.3196,-0.3173,-0.3166,-0.3124,-0.3106,-0.3073,-0.3028,-0.3007,-0.3012,-0.2939,-0.2959,-0.2957,-0.2954,-0.2927,-0.2921,-0.2916,-0.2983,-0.2983,-0.2984,0,0,-0.332,-0.3301,-0.3268,-0.3247,-0.3216,-0.3202,-0.3194,-0.3161,-0.3149,-0.3107,-0.3101,-0.3073,-0.3018,-0.2994,-0.2975,-0.293,-0.2926,-0.292,-0.2902,-0.2876,-0.2871,-0.2866,-0.2848,-0.2842,-0.2916,-0.2916,-0.2916,0,-0.3309,-0.3264,-0.3252,-0.3219,-0.3199,-0.3194,-0.316,-0.314,-0.31,-0.3085,-0.3092,-0.3023,-0.3,-0.2948,-0.2938,-0.2923,-0.2912,-0.2923,-0.2873,-0.2868,-0.2864,-0.2846,-0.284,-0.2915,-0.2916,-0.2916,-0.2916,0,-0.3252,-0.3221,-0.3198,-0.3161,-0.3139,-0.3106,-0.3087,-0.3066,-0.3059,-0.3043,-0.2999,-0.2973,-0.2935,-0.2923,-0.2915,-0.2869,-0.2873,-0.2877,-0.2888,-0.2858,-0.2841,-0.2834,-0.2915,-0.2915,-0.2915,-0.2915,0,0,-0.3211,-0.3168,-0.316,-0.3142,-0.3108,-0.3082,-0.3049,-0.3014,-0.2995,-0.2968,-0.2937,-0.2891,-0.2894,-0.2872,-0.2862,-0.2839,-0.2803,-0.2845,-0.2844,-0.2836,-0.2749,-0.2745,-0.2737,-0.2801,-0.28,-0.2799,-0.2751,0,-0.317,-0.3111,-0.3099,-0.3047,-0.3017,-0.3012,-0.2982,-0.2957,-0.2941,-0.2912,-0.2895,-0.2862,-0.2869,-0.2856,-0.2833,-0.2813,-0.2785,-0.2816,-0.2771,-0.2769,-0.2777,-0.2729,-0.2725,-0.268,-0.2744,-0.2743,-0.2743,0,-0.3112,-0.3085,-0.303,-0.2999,-0.2986,-0.296,-0.2926,-0.2899,-0.287,-0.286,-0.2837,-0.2829,-0.2792,-0.2807,-0.2755,-0.2776,-0.2757,-0.2745,-0.2743,-0.2736,-0.2752,-0.2719,-0.2666,-0.2658,-0.2733,-0.2733,-0.2734,0,-0.3086,-0.3035,-0.2995,-0.2981,-0.2944,-0.2926,-0.2909,-0.2881,-0.286,-0.2831,-0.2817,-0.2783,-0.2763,-0.2737,-0.272,-0.2732,-0.2668,-0.2682,-0.2657,-0.2657,-0.2641,-0.2642,-0.2583,-0.2633,-0.2633,-0.2634,-0.2634,0,-0.3039,-0.3005,-0.2983,-0.2958,-0.292,-0.2907,-0.2868,-0.2852,-0.2827,-0.2798,-0.2792,-0.2764,-0.2745,-0.2714,-0.2701,-0.2658,-0.265,-0.264,-0.2636,-0.2639,-0.264,-0.2624,-0.2626,-0.2632,-0.2632,-0.2633,-0.2633,0,-0.3001,-0.2986,-0.2942,-0.2911,-0.2903,-0.2876,-0.2849,-0.2824,-0.2809,-0.2772,-0.2763,-0.2738,-0.2702,-0.2683,-0.2638,-0.2629,-0.258,-0.258,-0.259,-0.2588,-0.2563,-0.2565,-0.249,-0.2478,-0.2539,-0.2538,-0.2538,0,-0.2971,-0.2945,-0.2912,-0.2893,-0.2877,-0.2846,-0.2825,-0.2811,-0.2789,-0.2754,-0.2733,-0.2697,-0.2666,-0.2608,-0.2586,-0.255,-0.2547,-0.2523,-0.2542,-0.2545,-0.2544,-0.2545,-0.2541,-0.2519,-0.2519,-0.2518,-0.2518,0,-0.2919,-0.2912,-0.2883,-0.2851,-0.2827,-0.2801,-0.2775,-0.2759,-0.274,-0.2716,-0.268,-0.2656,-0.261,-0.2573,-0.2537,-0.2518,-0.2514,-0.2513,-0.2505,-0.2506,-0.2512,-0.2506,-0.2579,-0.2514,-0.2514,-0.2514,-0.2515,-0.2515,-0.2882,-0.2859,-0.2832,-0.2799,-0.2779,-0.2755,-0.2729,-0.2712,-0.2682,-0.2644,-0.2637,-0.2598,-0.2569,-0.2519,-0.25,-0.2467,-0.2472,-0.2461,-0.2458,-0.2454,-0.2452,-0.252,-0.2461,-0.2461,-0.2461,-0.2461,-0.2461,0,-0.2827,-0.281,-0.2781,-0.2745,-0.2719,-0.272,-0.2692,-0.2669,-0.2635,-0.2609,-0.258,-0.2538,-0.2502,-0.2477,-0.2441,-0.242,-0.2417,-0.241,-0.241,-0.2406,-0.2451,-0.2461,-0.2413,-0.2413,-0.2413,-0.2413,-0.2413,-0.2413,-0.2796,-0.2755,-0.2746,-0.2694,-0.2677,-0.2639,-0.2623,-0.26,-0.2579,-0.2532,-0.2503,-0.2488,-0.2461,-0.2423,-0.239,-0.2383,-0.2369,-0.2362,-0.2355,-0.2398,-0.2403,-0.2407,-0.2416,-0.236,-0.236,-0.2312,-0.2312,-0.2311]},{"header":{"parameterUnit":"m.s-1","parameterCategory":1,"la1":30.2991,"la2":30.254,"lo1":-89.0895,"lo2":-89.0444,"dy":0.0017,"dx":0.0017,"nx":28,"ny":28,"refTime":"2024-07-01T09:00:00:Z","depth":0,"parameterNumber":3,"parameterNumberName":"V-component_of_WINDS"},"data":[0,0,0,0,0,0,0,0,0,0,0,0,0,0,0,0,0,0,0,0,0,0,0,0,0,0,0,0,0,0,0,0,0,0,0,0,0,0,0,0,0,0,0,0,0,0,0,0,0,0,0,0,0,0,0,0,0,0,-0.891,-0.891,0,-0.8878,-0.8877,-0.8877,-0.8947,-0.8949,-0.8951,-0.8953,-0.8915,-0.8912,-0.8909,0,0,0,0,0,0,0,0,0,0,0,0,0,-0.9031,-0.9028,-0.891,-0.891,-0.891,-0.8878,-0.8877,-0.8877,-0.8946,-0.8949,-0.8952,-0.8954,-0.8916,-0.8912,-0.8908,0,0,0,0,0,0,0,0,0,0,0,0,0,-0.8986,-0.9027,-0.891,-0.8941,-0.8943,-0.8878,-0.8877,-0.8877,-0.8946,-0.8949,-0.8953,-0.8956,-0.8917,-0.8913,-0.8908,-0.8811,0,0,-0.8894,-0.8892,0,0,0,0,0,0,0,0,-0.8989,-0.8982,-0.8937,-0.8938,-0.8941,-0.892,-0.8906,-0.8854,-0.8945,-0.8944,-0.8953,-0.8957,-0.8914,-0.8909,-0.8896,-0.8809,-0.8807,-0.8893,-0.889,-0.8888,-0.8887,0,0,0,0,0,0,0,-0.8992,-0.8983,-0.8897,-0.8936,-0.8938,-0.8955,-0.8952,-0.8896,-0.891,-0.8945,-0.895,-0.8945,-0.8915,-0.89,-0.8895,-0.8807,-0.8893,-0.8889,-0.8886,-0.8884,-0.8644,-0.864,0,0,0,0,0,0,-0.8991,-0.8986,-0.8898,-0.8896,-0.8974,-0.895,-0.8947,-0.8923,-0.8911,-0.8912,-0.8942,-0.8949,-0.8906,-0.8901,-0.8894,-0.8783,-0.8888,-0.8884,-0.8881,-0.8647,-0.8643,-0.8639,0,0,0,0,0,0,-0.8994,-0.8983,-0.89,-0.8942,-0.8933,-0.8944,-0.8917,-0.8921,-0.8905,-0.8909,-0.8912,-0.8924,-0.8909,-0.8901,-0.8832,-0.8783,-0.8882,-0.8878,-0.8651,-0.8646,-0.8641,-0.8558,0,0,0,0,0,0,-0.8997,-0.8983,-0.8947,-0.8941,-0.8931,-0.8839,-0.8914,-0.8918,-0.8898,-0.8906,-0.8893,-0.8894,-0.8911,-0.8839,-0.8828,-0.8778,-0.8874,-0.8656,-0.8649,-0.8643,-0.8565,-0.855,-0.8537,0,0,0,0,0,-0.9001,-0.8922,-0.8944,-0.8934,-0.8885,-0.8836,-0.883,-0.8852,-0.8893,-0.8857,-0.886,-0.8894,-0.879,-0.8831,-0.8819,-0.8767,-0.8659,-0.8651,-0.8643,-0.8571,-0.8553,-0.8538,0,0,0,0,0,0,-0.8919,-0.8922,-0.8947,-0.8864,-0.885,-0.8848,-0.8802,-0.8831,-0.8803,-0.8811,-0.8839,-0.8836,-0.8763,-0.8758,-0.8804,-0.8675,-0.8731,-0.872,-0.8681,-0.8664,-0.865,-0.8654,-0.887,0,0,0,0,0,-0.8891,-0.8852,-0.8857,-0.8783,-0.8775,-0.879,-0.8769,-0.8788,-0.8773,-0.8767,-0.8765,-0.8748,-0.8712,-0.8687,-0.8654,-0.8564,-0.8564,-0.8523,-0.8509,-0.8498,-0.8488,-0.8445,-0.8428,-0.8613,-0.8613,-0.8613,0,0,-0.8833,-0.8831,-0.8803,-0.8767,-0.8758,-0.8717,-0.8784,-0.8736,-0.8706,-0.8759,-0.8696,-0.8694,-0.8677,-0.8599,-0.8565,-0.8593,-0.8438,-0.8488,-0.8478,-0.8475,-0.8435,-0.8417,-0.8402,-0.8607,-0.8608,-0.8609,0,0,-0.8708,-0.8701,-0.8641,-0.8632,-0.8619,-0.863,-0.8616,-0.861,-0.8612,-0.855,-0.859,-0.8554,-0.849,-0.8478,-0.8463,-0.8338,-0.837,-0.8326,-0.8254,-0.8212,-0.8197,-0.8184,-0.8143,-0.8127,-0.8316,-0.8316,-0.8316,0,-0.8637,-0.8578,-0.8606,-0.8558,-0.8542,-0.8591,-0.8531,-0.852,-0.8495,-0.8483,-0.8516,-0.844,-0.8431,-0.8354,-0.8324,-0.8309,-0.8295,-0.8328,-0.8197,-0.8185,-0.8173,-0.8134,-0.8118,-0.8311,-0.8312,-0.8312,-0.8313,0,-0.8494,-0.8453,-0.8406,-0.8385,-0.8364,-0.8309,-0.8329,-0.8304,-0.8325,-0.8333,-0.8271,-0.8263,-0.8231,-0.8214,-0.8232,-0.8139,-0.8158,-0.8193,-0.8251,-0.815,-0.8114,-0.8099,-0.8304,-0.8306,-0.8307,-0.8308,0,0,-0.8314,-0.8313,-0.8295,-0.8289,-0.828,-0.8248,-0.8197,-0.8168,-0.8147,-0.8129,-0.8088,-0.8035,-0.807,-0.8053,-0.8071,-0.8033,-0.7939,-0.8074,-0.8074,-0.8052,-0.784,-0.7815,-0.7797,-0.796,-0.7957,-0.7955,-0.7842,0,-0.8192,-0.8108,-0.8133,-0.8047,-0.8011,-0.8059,-0.8015,-0.8005,-0.8011,-0.7981,-0.7988,-0.7951,-0.7997,-0.7988,-0.7953,-0.7958,-0.7897,-0.7966,-0.7923,-0.7921,-0.7928,-0.7777,-0.775,-0.7644,-0.7828,-0.7825,-0.7824,0,-0.8039,-0.802,-0.7931,-0.7933,-0.7919,-0.7879,-0.7857,-0.7827,-0.7817,-0.7825,-0.7809,-0.7836,-0.7787,-0.7844,-0.7778,-0.7825,-0.7809,-0.7809,-0.7805,-0.7803,-0.7868,-0.7774,-0.761,-0.7595,-0.7801,-0.7803,-0.7804,0,-0.792,-0.7871,-0.7814,-0.7806,-0.7805,-0.7777,-0.7775,-0.7769,-0.7752,-0.7732,-0.7721,-0.7695,-0.7681,-0.766,-0.768,-0.7719,-0.7611,-0.767,-0.7618,-0.7617,-0.7594,-0.7595,-0.7428,-0.7579,-0.7579,-0.758,-0.758,0,-0.7783,-0.7728,-0.7762,-0.7726,-0.7667,-0.7697,-0.7637,-0.764,-0.7635,-0.7601,-0.7639,-0.7607,-0.7634,-0.7604,-0.7619,-0.7564,-0.7556,-0.7562,-0.7567,-0.756,-0.7559,-0.7551,-0.756,-0.7575,-0.7576,-0.7577,-0.7578,0,-0.7641,-0.7661,-0.7602,-0.7608,-0.7608,-0.7564,-0.7569,-0.7537,-0.7548,-0.7505,-0.7496,-0.7512,-0.748,-0.7498,-0.7462,-0.7473,-0.7402,-0.7416,-0.7407,-0.7411,-0.7359,-0.7365,-0.7182,-0.7161,-0.7323,-0.7322,-0.7321,0,-0.7553,-0.7513,-0.7516,-0.7498,-0.7495,-0.7463,-0.7448,-0.7476,-0.7458,-0.7446,-0.7416,-0.7387,-0.7365,-0.731,-0.7319,-0.7293,-0.7308,-0.7246,-0.7304,-0.73,-0.7311,-0.7314,-0.7312,-0.7234,-0.7232,-0.7231,-0.7229,0,-0.7396,-0.741,-0.7386,-0.7367,-0.7348,-0.7333,-0.7321,-0.7304,-0.7333,-0.731,-0.7279,-0.7263,-0.723,-0.7201,-0.718,-0.7177,-0.7209,-0.7211,-0.7198,-0.7192,-0.7189,-0.7193,-0.7377,-0.7215,-0.7217,-0.7218,-0.7218,-0.7219,-0.728,-0.7249,-0.7248,-0.7221,-0.7217,-0.7206,-0.7178,-0.7187,-0.7162,-0.7139,-0.7157,-0.7121,-0.7115,-0.7091,-0.7085,-0.7057,-0.7082,-0.7062,-0.7058,-0.7053,-0.7048,-0.7192,-0.7052,-0.7053,-0.7053,-0.7054,-0.7054,0,-0.7128,-0.7131,-0.7107,-0.7092,-0.7072,-0.7106,-0.7096,-0.7076,-0.7045,-0.7038,-0.7018,-0.6983,-0.6957,-0.6965,-0.6941,-0.6918,-0.6932,-0.6911,-0.6914,-0.6914,-0.7025,-0.704,-0.69,-0.69,-0.69,-0.69,-0.69,-0.69,-0.7047,-0.6997,-0.701,-0.6959,-0.6961,-0.6929,-0.6921,-0.6912,-0.6907,-0.6868,-0.6848,-0.6854,-0.6854,-0.6831,-0.6809,-0.6812,-0.6803,-0.6777,-0.6786,-0.689,-0.6905,-0.692,-0.6934,-0.6774,-0.6774,-0.6677,-0.6676,-0.6676]}]]